Time,TemperatureF,DewpointF,PressureIn,WindDirection,WindDirectionDegrees,WindSpeedMPH,WindSpeedGustMPH,Humidity,HourlyPrecipIn,Conditions,Clouds,dailyrainin,SoftwareType,DateUTC
2013-06-23 00:01:00,76.0,66.0,-100.00,South,190,2.0,3.0,72,0.00,,,-99.99,,2013-06-23 04:01:00,
2013-06-23 00:11:00,76.0,66.0,-100.00,SSE,160,2.0,4.0,73,0.00,,,-99.99,,2013-06-23 04:11:00,
2013-06-23 00:21:00,75.0,67.0,-100.00,South,175,2.0,5.0,74,0.00,,,-99.99,,2013-06-23 04:21:00,
2013-06-23 00:31:00,75.0,66.0,-100.00,SSE,150,1.0,3.0,74,0.00,,,-99.99,,2013-06-23 04:31:00,
2013-06-23 00:42:00,75.0,67.0,-100.00,ESE,120,2.0,2.0,75,0.00,,,-99.99,,2013-06-23 04:42:00,
2013-06-23 00:52:00,74.0,67.0,-100.00,SE,135,2.0,4.0,76,0.00,,,-99.99,,2013-06-23 04:52:00,
2013-06-23 01:01:00,74.0,67.0,-100.00,SSW,195,1.0,4.0,77,0.00,,,-99.99,,2013-06-23 05:01:00,
2013-06-23 01:11:00,74.0,67.0,-100.00,SSW,200,1.0,4.0,77,0.00,,,-99.99,,2013-06-23 05:11:00,
2013-06-23 01:22:00,73.0,67.0,-100.00,SSE,165,0.0,1.0,79,0.00,,,-99.99,,2013-06-23 05:22:00,
2013-06-23 01:32:00,74.0,67.0,-100.00,South,185,2.0,2.0,81,0.00,,,-99.99,,2013-06-23 05:32:00,
2013-06-23 01:41:00,73.0,67.0,-100.00,South,190,0.0,2.0,81,0.00,,,-99.99,,2013-06-23 05:41:00,
2013-06-23 01:51:00,73.0,68.0,-100.00,SW,215,1.0,3.0,82,0.00,,,-99.99,,2013-06-23 05:51:00,
2013-06-23 02:02:00,73.0,68.0,-100.00,South,185,0.0,2.0,83,0.00,,,-99.99,,2013-06-23 06:02:00,
2013-06-23 02:12:00,73.0,68.0,-100.00,South,185,0.0,2.0,83,0.00,,,-99.99,,2013-06-23 06:12:00,
2013-06-23 02:22:00,73.0,68.0,-100.00,South,185,0.0,2.0,85,0.00,,,-99.99,,2013-06-23 06:22:00,
2013-06-23 02:33:00,73.0,69.0,-100.00,SE,130,1.0,2.0,86,0.00,,,-99.99,,2013-06-23 06:33:00,
2013-06-23 02:43:00,73.0,69.0,-100.00,South,170,1.0,2.0,87,0.00,,,-99.99,,2013-06-23 06:43:00,
2013-06-23 02:52:00,73.0,69.0,-100.00,South,190,1.0,4.0,87,0.00,,,-99.99,,2013-06-23 06:52:00,
2013-06-23 03:02:00,72.0,68.0,-100.00,SSW,200,0.0,2.0,87,0.00,,,-99.99,,2013-06-23 07:02:00,
2013-06-23 03:12:00,72.0,68.0,-100.00,NE,35,0.0,1.0,88,0.00,,,-99.99,,2013-06-23 07:12:00,
2013-06-23 03:22:00,72.0,69.0,-100.00,South,190,0.0,0.0,89,0.00,,,-99.99,,2013-06-23 07:22:00,
2013-06-23 03:34:00,71.0,68.0,-100.00,SSE,160,0.0,0.0,89,0.00,,,-99.99,,2013-06-23 07:34:00,
2013-06-23 03:43:00,71.0,68.0,-100.00,South,170,0.0,0.0,90,0.00,,,-99.99,,2013-06-23 07:43:00,
2013-06-23 03:53:00,71.0,68.0,-100.00,South,185,0.0,2.0,90,0.00,,,-99.99,,2013-06-23 07:53:00,
2013-06-23 04:02:00,71.0,68.0,-100.00,SE,130,1.0,1.0,91,0.00,,,-99.99,,2013-06-23 08:02:00,
2013-06-23 04:12:00,70.0,68.0,-100.00,ESE,105,0.0,2.0,92,0.00,,,-99.99,,2013-06-23 08:12:00,
2013-06-23 04:22:00,69.0,67.0,-100.00,ESE,105,0.0,0.0,93,0.00,,,-99.99,,2013-06-23 08:22:00,
2013-06-23 04:34:00,69.0,67.0,-100.00,SSE,160,0.0,0.0,94,0.00,,,-99.99,,2013-06-23 08:34:00,
2013-06-23 04:43:00,69.0,68.0,-100.00,SSE,165,0.0,0.0,94,0.00,,,-99.99,,2013-06-23 08:43:00,
2013-06-23 04:53:00,69.0,67.0,-100.00,South,175,0.0,0.0,94,0.00,,,-99.99,,2013-06-23 08:53:00,
2013-06-23 05:02:00,69.0,67.0,-100.00,South,175,0.0,0.0,94,0.00,,,-99.99,,2013-06-23 09:02:00,
2013-06-23 05:12:00,69.0,67.0,-100.00,SE,135,0.0,0.0,94,0.00,,,-99.99,,2013-06-23 09:12:00,
2013-06-23 05:22:00,69.0,67.0,-100.00,South,180,0.0,0.0,94,0.00,,,-99.99,,2013-06-23 09:22:00,
2013-06-23 05:34:00,69.0,67.0,-100.00,South,170,1.0,1.0,94,0.00,,,-99.99,,2013-06-23 09:34:00,
2013-06-23 05:43:00,69.0,67.0,-100.00,SSE,160,1.0,2.0,94,0.00,,,-99.99,,2013-06-23 09:43:00,
2013-06-23 05:53:00,68.0,67.0,-100.00,South,185,0.0,1.0,94,0.00,,,-99.99,,2013-06-23 09:53:00,
2013-06-23 06:02:00,68.0,67.0,-100.00,South,170,2.0,3.0,94,0.00,,,-99.99,,2013-06-23 10:02:00,
2013-06-23 06:11:00,69.0,67.0,-100.00,SSE,160,1.0,4.0,94,0.00,,,-99.99,,2013-06-23 10:11:00,
2013-06-23 06:22:00,69.0,67.0,-100.00,South,175,0.0,3.0,94,0.00,,,-99.99,,2013-06-23 10:22:00,
2013-06-23 06:34:00,68.0,67.0,-100.00,South,175,0.0,2.0,94,0.00,,,-99.99,,2013-06-23 10:34:00,
2013-06-23 06:43:00,68.0,67.0,-100.00,SE,145,1.0,4.0,94,0.00,,,-99.99,,2013-06-23 10:43:00,
2013-06-23 06:53:00,69.0,67.0,-100.00,South,170,3.0,4.0,94,0.00,,,-99.99,,2013-06-23 10:53:00,
2013-06-23 07:02:00,69.0,67.0,-100.00,SSE,160,1.0,4.0,94,0.00,,,-99.99,,2013-06-23 11:02:00,
2013-06-23 07:11:00,69.0,68.0,-100.00,South,180,3.0,6.0,94,0.00,,,-99.99,,2013-06-23 11:11:00,
2013-06-23 07:22:00,70.0,68.0,-100.00,SSE,165,4.0,6.0,94,0.00,,,-99.99,,2013-06-23 11:22:00,
2013-06-23 07:33:00,70.0,69.0,-100.00,South,170,4.0,6.0,94,0.00,,,-99.99,,2013-06-23 11:33:00,
2013-06-23 07:43:00,70.0,69.0,-100.00,South,170,4.0,6.0,94,0.00,,,-99.99,,2013-06-23 11:43:00,
2013-06-23 07:53:00,71.0,69.0,-100.00,South,190,4.0,6.0,92,0.00,,,-99.99,,2013-06-23 11:53:00,
2013-06-23 08:01:00,72.0,69.0,-100.00,SSE,165,2.0,7.0,91,0.00,,,-99.99,,2013-06-23 12:01:00,
2013-06-23 08:12:00,72.0,69.0,-100.00,SSE,165,2.0,7.0,91,0.00,,,-99.99,,2013-06-23 12:12:00,
2013-06-23 08:22:00,73.0,69.0,-100.00,South,175,5.0,9.0,89,0.00,,,-99.99,,2013-06-23 12:22:00,
2013-06-23 08:33:00,73.0,69.0,-100.00,SSE,165,4.0,9.0,87,0.00,,,-99.99,,2013-06-23 12:33:00,
2013-06-23 08:42:00,74.0,69.0,-100.00,SSW,195,2.0,8.0,86,0.00,,,-99.99,,2013-06-23 12:42:00,
2013-06-23 08:53:00,75.0,69.0,-100.00,SSE,165,3.0,6.0,83,0.00,,,-99.99,,2013-06-23 12:53:00,
2013-06-23 09:02:00,75.0,69.0,-100.00,SSW,200,4.0,7.0,80,0.00,,,-99.99,,2013-06-23 13:02:00,
2013-06-23 09:11:00,75.0,69.0,-100.00,SSW,200,4.0,7.0,80,0.00,,,-99.99,,2013-06-23 13:11:00,
2013-06-23 09:23:00,77.0,68.0,-100.00,South,175,3.0,7.0,75,0.00,,,-99.99,,2013-06-23 13:23:00,
2013-06-23 09:34:00,77.0,68.0,-100.00,South,190,2.0,7.0,73,0.00,,,-99.99,,2013-06-23 13:34:00,
2013-06-23 09:43:00,78.0,68.0,-100.00,South,170,4.0,8.0,70,0.00,,,-99.99,,2013-06-23 13:43:00,
2013-06-23 09:54:00,79.0,67.0,-100.00,South,185,4.0,7.0,67,0.00,,,-99.99,,2013-06-23 13:54:00,
2013-06-23 10:05:00,80.0,67.0,-100.00,SSE,155,3.0,7.0,66,0.00,,,-99.99,,2013-06-23 14:05:00,
2013-06-23 10:11:00,81.0,67.0,-100.00,ESE,120,3.0,5.0,63,0.00,,,-99.99,,2013-06-23 14:11:00,
2013-06-23 10:22:00,81.0,67.0,-100.00,SSE,160,4.0,8.0,61,0.00,,,-99.99,,2013-06-23 14:22:00,
2013-06-23 10:34:00,82.0,66.0,-100.00,SSE,165,4.0,8.0,59,0.00,,,-99.99,,2013-06-23 14:34:00,
2013-06-23 10:44:00,82.0,65.0,-100.00,SSE,155,4.0,9.0,56,0.00,,,-99.99,,2013-06-23 14:44:00,
2013-06-23 10:52:00,83.0,65.0,-100.00,SE,145,4.0,9.0,54,0.00,,,-99.99,,2013-06-23 14:52:00,
2013-06-23 11:05:00,83.0,65.0,-100.00,SSW,210,6.0,12.0,53,0.00,,,-99.99,,2013-06-23 15:05:00,
2013-06-23 11:12:00,84.0,65.0,-100.00,SSE,155,5.0,10.0,52,0.00,,,-99.99,,2013-06-23 15:12:00,
2013-06-23 11:23:00,85.0,65.0,-100.00,South,175,6.0,14.0,52,0.00,,,-99.99,,2013-06-23 15:23:00,
2013-06-23 11:35:00,85.0,65.0,-100.00,South,185,6.0,12.0,51,0.00,,,-99.99,,2013-06-23 15:35:00,
2013-06-23 11:43:00,85.0,66.0,-100.00,South,170,5.0,11.0,51,0.00,,,-99.99,,2013-06-23 15:43:00,
2013-06-23 11:52:00,86.0,66.0,-100.00,South,190,6.0,14.0,51,0.00,,,-99.99,,2013-06-23 15:52:00,
2013-06-23 12:06:00,86.0,66.0,-100.00,SSE,155,9.0,12.0,51,0.00,,,-99.99,,2013-06-23 16:06:00,
2013-06-23 12:12:00,87.0,66.0,-100.00,SSE,160,4.0,13.0,50,0.00,,,-99.99,,2013-06-23 16:12:00,
2013-06-23 12:22:00,87.0,66.0,-100.00,SE,130,9.0,16.0,50,0.00,,,-99.99,,2013-06-23 16:22:00,
2013-06-23 12:36:00,87.0,66.0,-100.00,South,185,7.0,16.0,49,0.00,,,-99.99,,2013-06-23 16:36:00,
2013-06-23 12:43:00,88.0,66.0,-100.00,SSW,200,6.0,12.0,48,0.00,,,-99.99,,2013-06-23 16:43:00,
2013-06-23 12:53:00,88.0,66.0,-100.00,SSW,200,6.0,12.0,48,0.00,,,-99.99,,2013-06-23 16:53:00,
2013-06-23 13:06:00,88.0,65.0,-100.00,SSE,155,7.0,10.0,46,0.00,,,-99.99,,2013-06-23 17:06:00,
2013-06-23 13:12:00,89.0,65.0,-100.00,SSE,160,9.0,16.0,46,0.00,,,-99.99,,2013-06-23 17:12:00,
2013-06-23 13:22:00,90.0,65.0,-100.00,South,180,6.0,11.0,44,0.00,,,-99.99,,2013-06-23 17:22:00,
2013-06-23 13:33:00,89.0,64.0,-100.00,SE,140,6.0,15.0,43,0.00,,,-99.99,,2013-06-23 17:33:00,
2013-06-23 13:43:00,90.0,64.0,-100.00,SSE,165,5.0,14.0,42,0.00,,,-99.99,,2013-06-23 17:43:00,
2013-06-23 13:53:00,90.0,64.0,-100.00,SE,135,7.0,12.0,41,0.00,,,-99.99,,2013-06-23 17:53:00,
2013-06-23 14:01:00,90.0,64.0,-100.00,SSE,150,6.0,13.0,41,0.00,,,-99.99,,2013-06-23 18:01:00,
2013-06-23 14:12:00,90.0,62.0,-100.00,SSE,165,7.0,12.0,39,0.00,,,-99.99,,2013-06-23 18:12:00,
2013-06-23 14:22:00,91.0,63.0,-100.00,South,170,6.0,12.0,39,0.00,,,-99.99,,2013-06-23 18:22:00,
2013-06-23 14:34:00,91.0,62.0,-100.00,South,170,8.0,15.0,38,0.00,,,-99.99,,2013-06-23 18:34:00,
2013-06-23 14:43:00,91.0,62.0,-100.00,South,190,6.0,15.0,38,0.00,,,-99.99,,2013-06-23 18:43:00,
2013-06-23 14:53:00,90.0,62.0,-100.00,SE,140,7.0,13.0,38,0.00,,,-99.99,,2013-06-23 18:53:00,
2013-06-23 15:01:00,90.0,62.0,-100.00,South,190,4.0,16.0,39,0.00,,,-99.99,,2013-06-23 19:01:00,
2013-06-23 15:11:00,91.0,62.0,-100.00,SSW,195,6.0,15.0,37,0.00,,,-99.99,,2013-06-23 19:11:00,
2013-06-23 15:21:00,92.0,62.0,-100.00,SSE,165,5.0,12.0,36,0.00,,,-99.99,,2013-06-23 19:21:00,
2013-06-23 15:32:00,91.0,61.0,-100.00,SSE,160,6.0,14.0,36,0.00,,,-99.99,,2013-06-23 19:32:00,
2013-06-23 15:43:00,91.0,61.0,-100.00,South,190,6.0,17.0,36,0.00,,,-99.99,,2013-06-23 19:43:00,
2013-06-23 15:53:00,91.0,62.0,-100.00,South,190,7.0,13.0,37,0.00,,,-99.99,,2013-06-23 19:53:00,
2013-06-23 16:02:00,91.0,62.0,-100.00,South,175,6.0,9.0,37,0.00,,,-99.99,,2013-06-23 20:02:00,
2013-06-23 16:12:00,92.0,62.0,-100.00,SSE,155,3.0,11.0,37,0.00,,,-99.99,,2013-06-23 20:12:00,
2013-06-23 16:24:00,92.0,62.0,-100.00,SSW,205,6.0,15.0,36,0.00,,,-99.99,,2013-06-23 20:24:00,
2013-06-23 16:33:00,91.0,61.0,-100.00,South,175,6.0,14.0,36,0.00,,,-99.99,,2013-06-23 20:33:00,
2013-06-23 16:42:00,92.0,62.0,-100.00,South,180,4.0,16.0,36,0.00,,,-99.99,,2013-06-23 20:42:00,
2013-06-23 16:53:00,91.0,61.0,-100.00,South,185,6.0,11.0,37,0.00,,,-99.99,,2013-06-23 20:53:00,
2013-06-23 17:01:00,91.0,61.0,-100.00,SSE,155,5.0,11.0,37,0.00,,,-99.99,,2013-06-23 21:01:00,
2013-06-23 17:11:00,92.0,62.0,-100.00,SE,145,6.0,12.0,36,0.00,,,-99.99,,2013-06-23 21:11:00,
2013-06-23 17:22:00,92.0,61.0,-100.00,SSW,205,6.0,13.0,36,0.00,,,-99.99,,2013-06-23 21:22:00,
2013-06-23 17:34:00,92.0,60.0,-100.00,South,180,5.0,12.0,34,0.00,,,-99.99,,2013-06-23 21:34:00,
2013-06-23 17:44:00,90.0,60.0,-100.00,South,190,7.0,16.0,36,0.00,,,-99.99,,2013-06-23 21:44:00,
2013-06-23 17:52:00,91.0,62.0,-100.00,South,175,10.0,16.0,38,0.00,,,-99.99,,2013-06-23 21:52:00,
2013-06-23 18:01:00,91.0,62.0,-100.00,South,175,4.0,12.0,38,0.00,,,-99.99,,2013-06-23 22:01:00,
2013-06-23 18:12:00,91.0,62.0,-100.00,South,170,7.0,12.0,38,0.00,,,-99.99,,2013-06-23 22:12:00,
2013-06-23 18:22:00,91.0,62.0,-100.00,SSE,160,5.0,12.0,38,0.00,,,-99.99,,2013-06-23 22:22:00,
2013-06-23 18:32:00,90.0,62.0,-100.00,South,190,6.0,14.0,39,0.00,,,-99.99,,2013-06-23 22:32:00,
2013-06-23 18:43:00,90.0,63.0,-100.00,SW,230,2.0,7.0,40,0.00,,,-99.99,,2013-06-23 22:43:00,
2013-06-23 18:53:00,90.0,62.0,-100.00,West,265,4.0,7.0,40,0.00,,,-99.99,,2013-06-23 22:53:00,
2013-06-23 19:01:00,89.0,62.0,-100.00,West,275,4.0,11.0,40,0.00,,,-99.99,,2013-06-23 23:01:00,
2013-06-23 19:11:00,89.0,61.0,-100.00,WSW,245,2.0,7.0,39,0.00,,,-99.99,,2013-06-23 23:11:00,
2013-06-23 19:22:00,89.0,62.0,-100.00,SSW,200,2.0,5.0,39,0.00,,,-99.99,,2013-06-23 23:22:00,
2013-06-23 19:33:00,89.0,62.0,-100.00,SW,235,0.0,6.0,40,0.00,,,-99.99,,2013-06-23 23:33:00,
2013-06-23 19:44:00,89.0,62.0,-100.00,South,190,2.0,6.0,41,0.00,,,-99.99,,2013-06-23 23:44:00,
2013-06-23 19:52:00,89.0,63.0,-100.00,SSW,205,1.0,7.0,42,0.00,,,-99.99,,2013-06-23 23:52:00,
2013-06-23 20:01:00,88.0,62.0,-100.00,SSW,200,2.0,6.0,42,0.00,,,-99.99,,2013-06-24 00:01:00,
2013-06-23 20:11:00,87.0,63.0,-100.00,South,185,4.0,9.0,43,0.00,,,-99.99,,2013-06-24 00:11:00,
2013-06-23 20:22:00,87.0,63.0,-100.00,WSW,245,2.0,6.0,44,0.00,,,-99.99,,2013-06-24 00:22:00,
2013-06-23 20:33:00,87.0,63.0,-100.00,WSW,250,1.0,6.0,45,0.00,,,-99.99,,2013-06-24 00:33:00,
2013-06-23 20:42:00,86.0,64.0,-100.00,SSW,195,0.0,2.0,47,0.00,,,-99.99,,2013-06-24 00:42:00,
2013-06-23 20:52:00,85.0,64.0,-100.00,West,270,0.0,1.0,50,0.00,,,-99.99,,2013-06-24 00:52:00,
2013-06-23 21:02:00,83.0,65.0,-100.00,WSW,250,0.0,2.0,53,0.00,,,-99.99,,2013-06-24 01:02:00,
2013-06-23 21:11:00,82.0,65.0,-100.00,WSW,240,0.0,5.0,55,0.00,,,-99.99,,2013-06-24 01:11:00,
2013-06-23 21:22:00,82.0,65.0,-100.00,WSW,240,0.0,5.0,55,0.00,,,-99.99,,2013-06-24 01:22:00,
2013-06-23 21:32:00,78.0,62.0,-100.00,SW,220,9.0,21.0,57,0.00,,,-99.99,,2013-06-24 01:32:00,
2013-06-23 21:42:00,77.0,62.0,-100.00,SSW,200,10.0,21.0,60,0.00,,,-99.99,,2013-06-24 01:42:00,
2013-06-23 21:53:00,76.0,63.0,-100.00,South,190,6.0,21.0,64,0.00,,,-99.99,,2013-06-24 01:53:00,
2013-06-23 22:02:00,76.0,62.0,-100.00,SSW,205,6.0,15.0,62,0.00,,,-99.99,,2013-06-24 02:02:00,
2013-06-23 22:11:00,76.0,61.0,-100.00,SW,220,4.0,16.0,59,0.00,,,-99.99,,2013-06-24 02:11:00,
2013-06-23 22:22:00,75.0,60.0,-100.00,SW,225,3.0,11.0,59,0.00,,,-99.99,,2013-06-24 02:22:00,
2013-06-23 22:33:00,75.0,60.0,-100.00,SSE,165,2.0,7.0,60,0.00,,,-99.99,,2013-06-24 02:33:00,
2013-06-23 22:42:00,75.0,60.0,-100.00,SSE,160,1.0,4.0,61,0.00,,,-99.99,,2013-06-24 02:42:00,
2013-06-23 22:53:00,75.0,61.0,-100.00,SSW,200,2.0,4.0,61,0.00,,,-99.99,,2013-06-24 02:53:00,
2013-06-23 23:01:00,74.0,61.0,-100.00,SSE,160,2.0,4.0,63,0.00,,,-99.99,,2013-06-24 03:01:00,
2013-06-23 23:11:00,74.0,62.0,-100.00,SSE,160,1.0,3.0,65,0.00,,,-99.99,,2013-06-24 03:11:00,
2013-06-23 23:22:00,74.0,63.0,-100.00,ESE,120,1.0,2.0,68,0.00,,,-99.99,,2013-06-24 03:22:00,
2013-06-23 23:33:00,73.0,64.0,-100.00,ESE,120,1.0,2.0,71,0.00,,,-99.99,,2013-06-24 03:33:00,
2013-06-23 23:43:00,73.0,64.0,-100.00,SE,145,1.0,3.0,73,0.00,,,-99.99,,2013-06-24 03:43:00,
2013-06-23 23:53:00,73.0,65.0,-100.00,ESE,120,2.0,4.0,76,0.00,,,-99.99,,2013-06-24 03:53:00,